EW9770 Weather Reports


time (UTC)temp
C
wind
direction
speed
KPH
gust
KPH
rain 1hr
cm
rain 24hr
cm
rain mn
cm
humidity
%
barometer
mb
20260510120030 17 53 0.0 0.0 0.00 0.00 0.00 95 1014.7
20260510114528 17 55 0.0 0.0 0.00 0.00 0.00 95 1014.4
20260510113027 17 59 0.0 0.0 0.00 0.00 0.00 95 1014.2
20260510111526 17 59 0.0 0.0 0.00 0.00 0.00 95 1014.1
20260510110034 17 59 0.0 0.0 0.00 0.00 0.00 95 1014.3
20260510104524 17 59 0.0 0.0 0.00 0.00 0.00 95 1014.3
20260510103026 17 60 0.0 0.0 0.00 0.00 0.00 95 1014.4
20260510101524 17 60 0.0 0.0 0.00 0.00 0.00 95 1014.7
20260510100024 17 60 0.0 0.0 0.00 0.00 0.00 95 1014.6
20260510094540 17 60 0.0 0.0 0.00 0.00 0.00 94 1014.3
20260510093021 17 59 0.0 0.0 0.00 0.00 0.00 94 1014.4
20260510091522 17 60 0.0 0.0 0.00 0.00 0.00 94 1014.2
20260510090018 17 60 0.0 0.0 0.00 0.00 0.00 94 1013.9
20260510084515 17 59 0.0 0.0 0.00 0.00 0.00 94 1013.6
20260510083015 17 60 0.0 0.0 0.00 0.00 0.00 94 1013.3
20260510081516 17 59 0.0 0.0 0.00 0.00 0.00 94 1013.0
20260510080014 17 59 0.0 0.0 0.00 0.00 0.00 94 1013.0
20260510074511 17 60 0.0 0.0 0.00 0.00 0.00 94 1012.9
20260510073012 17 60 0.0 0.0 0.00 0.00 0.00 93 1013.0
20260510071508 17 60 0.0 0.0 0.00 0.00 0.00 93 1012.9
20260510070012 17 60 0.0 0.0 0.00 0.00 0.00 93 1013.2
20260510064505 17 61 0.0 0.0 0.00 0.00 0.00 93 1013.1
20260510063004 17 61 0.0 0.0 0.00 0.00 0.00 93 1013.5
20260510061601 18 60 0.0 0.0 0.00 0.00 0.00 92 1013.2
20260510060101 18 59 0.0 0.0 0.00 0.00 0.00 93 1013.2
20260510054558 18 59 0.0 0.0 0.00 0.00 0.00 92 1013.2
20260510053101 18 59 0.0 0.0 0.00 0.00 0.00 92 1012.8
20260510051557 18 59 0.0 0.0 0.00 0.00 0.00 91 1012.7
20260510050054 18 60 0.0 0.0 0.00 0.00 0.00 91 1012.7
20260510044553 18 57 0.0 0.0 0.00 0.00 0.00 91 1012.7
20260510043101 19 55 0.0 0.0 0.00 0.00 0.00 91 1012.7
20260510041552 19 82 0.0 0.0 0.00 0.00 0.00 90 1012.5
20260510040052 19 83 0.0 0.0 0.00 0.00 0.00 90 1012.7
20260510034550 20 67 0.0 0.0 0.00 0.00 0.00 90 1012.7
20260510033100 20 67 0.0 0.0 0.00 0.00 0.00 90 1012.4
20260510031550 20 65 0.0 0.0 0.00 0.00 0.00 89 1012.2
20260510030048 20 70 0.0 0.0 0.00 0.00 0.00 89 1012.0
20260510024548 20 63 0.0 0.0 0.00 0.00 0.00 88 1012.0
20260510023044 20 61 0.0 0.0 0.00 0.00 0.00 88 1011.8
20260510021644 20 63 0.0 1.6 0.00 0.00 0.00 88 1011.7
20260510020043 21 62 0.0 0.0 0.00 0.00 0.00 87 1011.5
20260510014544 21 63 0.0 0.0 0.00 0.00 0.00 87 1011.3
20260510013049 21 63 0.0 0.0 0.00 0.00 0.00 86 1011.2
20260510011544 22 65 0.0 0.0 0.00 0.00 0.00 85 1010.9
20260510010040 22 65 0.0 0.0 0.00 0.00 0.00 84 1010.6
20260510004543 23 67 0.0 0.0 0.00 0.00 0.00 82 1010.5
20260510003041 23 63 0.0 0.0 0.00 0.00 0.00 82 1010.5
20260510001542 23 66 0.0 0.0 0.00 0.00 0.00 80 1010.3
20260510000047 23 63 0.0 0.0 0.00 0.00 0.00 78 1010.1
20260509234537 24 73 0.0 0.0 0.00 0.00 0.00 76 1010.0
20260509233037 24 54 0.0 0.0 0.00 0.00 0.00 75 1010.0
20260509231540 25 55 0.0 0.0 0.00 0.00 0.00 74 1009.9
20260509230036 25 57 0.0 0.0 0.00 0.00 0.00 72 1009.8
20260509224536 25 57 0.0 0.0 0.00 0.00 0.00 71 1009.8
20260509223036 25 57 0.0 0.0 0.00 0.00 0.00 71 1009.8
20260509221537 26 57 0.0 0.0 0.00 0.00 0.00 69 1009.6
20260509220034 26 57 0.0 1.6 0.00 0.00 0.00 69 1009.6
20260509214537 27 57 0.0 3.2 0.00 0.00 0.00 67 1009.4
20260509213035 28 57 0.0 4.8 0.00 0.00 0.00 64 1009.5
20260509211532 28 49 1.6 4.8 0.00 0.00 0.00 61 1009.4
20260509210034 28 295 0.0 3.2 0.00 0.00 0.00 62 1009.8
20260509204535 28 305 0.0 4.8 0.00 0.00 0.00 60 1009.9
20260509203028 27 128 0.0 4.8 0.00 0.00 0.00 63 1009.9
20260509201526 27 199 0.0 0.0 0.00 0.00 0.00 62 1010.4
20260509200025 27 94 0.0 0.0 0.00 0.00 0.00 65 1010.5
20260509194529 27 105 0.0 0.0 0.00 0.00 0.00 67 1010.5
20260509193029 26 121 0.0 0.0 0.00 0.00 0.00 69 1010.6
20260509191537 26 120 0.0 0.0 0.00 0.00 0.00 67 1010.8
20260509190028 26 120 0.0 0.0 0.00 0.00 0.00 65 1010.8
20260509184532 27 124 0.0 0.0 0.00 0.00 0.00 64 1010.9
20260509183029 27 125 0.0 0.0 0.00 0.00 0.00 63 1011.0
20260509181519 26 90 0.0 0.0 0.00 0.00 0.00 64 1010.9
20260509180019 27 90 0.0 0.0 0.00 0.00 0.00 61 1011.2
20260509174521 27 298 0.0 0.0 0.00 0.00 0.00 65 1011.2
20260509173011 26 298 0.0 0.0 0.00 0.00 0.00 66 1011.4
20260509171512 26 295 0.0 0.0 0.00 0.00 0.00 67 1011.4
20260509170010 26 261 0.0 0.0 0.00 0.00 0.00 66 1011.5
20260509164506 26 325 0.0 0.0 0.00 0.00 0.00 67 1011.4
20260509163003 25 288 0.0 0.0 0.00 0.00 0.00 68 1011.3
20260509161501 25 5 0.0 0.0 0.00 0.00 0.00 69 1011.3
20260509160056 25 301 0.0 0.0 0.00 0.00 0.00 69 1011.4
20260509154554 24 317 0.0 0.0 0.00 0.00 0.00 72 1011.4
20260509153103 23 331 0.0 0.0 0.00 0.00 0.00 71 1011.3
20260509151549 23 317 0.0 0.0 0.00 0.00 0.00 73 1011.3
20260509150045 22 131 0.0 0.0 0.00 0.00 0.00 77 1011.3
20260509144543 22 137 0.0 0.0 0.00 0.00 0.00 77 1011.4
20260509143040 21 137 0.0 0.0 0.00 0.00 0.00 80 1011.6
20260509141535 20 137 0.0 0.0 0.00 0.00 0.00 82 1011.7
20260509140032 20 137 0.0 0.0 0.00 0.00 0.00 86 1011.9
20260509134528 18 137 0.0 0.0 0.00 0.00 0.00 92 1011.9
20260509133023 16 137 0.0 0.0 0.00 0.00 0.00 95 1011.9
20260509131521 15 137 0.0 0.0 0.00 0.00 0.00 95 1011.7
20260509130030 15 137 0.0 0.0 0.00 0.00 0.00 95 1011.8
20260509124520 14 134 0.0 0.0 0.00 0.00 0.00 95 1011.7
20260509123018 13 134 0.0 0.0 0.00 0.00 0.00 95 1011.5
20260509121523 13 133 0.0 0.0 0.00 0.00 0.00 94 1011.5